Location: Huesca
(42.1318°N, 0.4078°W)
Time: 07:04:50
(UTC+02:00)

METEOR M2 - Visible Passes

Search period start: 16 April 2024 00:00
Search period end: 26 April 2024 00:00
Orbit: 818 x 826 km, 98.4° (Epoch: 15 April)

Date Brightness Start Highest point End Pass type
(mag) Time Alt. Az. Time Alt. Az. Time Alt. Az.
19 Apr ? 06:30:54 10° NE 06:34:45 20° E 06:38:34 10° SE visible
20 Apr ? 06:12:03 10° ENE 06:14:20 13° E 06:16:37 10° ESE visible
24 Apr ? 06:30:16 10° NE 06:34:06 20° E 06:37:55 10° SE visible
25 Apr ? 06:11:25 10° ENE 06:13:42 13° E 06:15:58 10° ESE visible
